Temp
25 24 24 24 24 24 23 23 23 22 22 22 22 22 22 22 22 22 22 22 22 22 21 21 21 21 21 21 21 21 21 20 20 20 20 20 20 20 20 20 20 20 20 19 19 19 19 19 19 19 19 18 18 18 18 18 17 17 17 17 16 16 16 16 17 17 18 18 19 19 20 20 21 21 22 22 22 23 23 23 23 23 23 23 23
25 24 24 24 24 23 23 23 22 22 22 22 22 22 22 22 22 22 22 22 22 22 22 22 21 21 21 21 21 20 20 20 20 20 20 20 20 20 20 20 20 20 20 19 19 19 19 19 18 18 18 18 18 17 17 17 16 16 16 16 16 16 16 16 16 16 17 18 18 19 19 20 20 20 21 21 22 22 22 22 22 22 22 23 23
25 24 24 24 24 23 23 23 23 23 22 22 22 22 22 23 23 23 23 23 23 22 22 22 22 21 21 21 21 21 20 20 20 20 20 20 20 20 20 20 19 19 19 19 19 19 19 18 18 18 18 18 17 17 17 16 16 15 15 15 15 15 15 15 15 16 16 17 17 18 19 19 20 20 21 21 21 22 22 22 22 22 22 23 23
25 24 24 24 24 23 23 23 23 23 23 23 23 23 23 24 24 23 23 23 23 23 22 22 22 22 21 21 21 21 20 20 20 20 20 20 20 20 20 20 19 19 19 19 19 19 19 18 18 18 18 17 17 17 16 16 16 15 15 15 14 14 14 15 15 15 15 16 17 18 18 19 20 20 20 21 21 22 22 22 22 22 23 23 24
25 24 24 24 24 24 23 23 23 23 23 23 23 23 24 24 24 24 24 23 23 23 23 23 23 22 22 22 22 21 21 20 20 20 20 19 19 20 20 19 19 19 19 19 19 19 19 18 18 18 17 17 17 16 16 16 15 15 15 14 14 14 14 14 14 14 15 16 16 17 18 18 19 20 20 21 21 21 22 22 22 22 22 23 23
26 25 24 24 24 24 23 23 23 23 23 23 23 23 23 23 24 24 23 23 23 23 23 23 23 23 22 22 22 21 21 20 20 20 20 19 19 19 19 19 19 19 19 19 19 19 19 18 18 18 17 17 16 16 16 15 15 15 14 14 14 14 14 14 14 14 14 15 16 17 17 18 19 19 20 20 21 21 21 21 21 21 21 21 22
27 26 25 25 25 24 24 23 23 24 24 23 23 23 23 23 23 23 22 22 22 22 22 22 22 22 22 22 22 21 21 20 20 20 20 19 19 19 19 18 19 19 19 19 19 19 19 19 18 18 17 17 16 16 15 15 15 14 14 14 14 14 14 13 14 14 14 14 15 16 17 18 18 19 19 20 20 20 21 20 20 20 20 20 21
26 26 26 26 25 25 24 24 24 24 24 23 23 23 23 23 22 22 22 21 21 22 22 22 22 22 22 22 21 21 21 20 20 20 20 19 19 19 19 19 19 19 19 19 19 19 19 18 18 18 17 17 17 17 16 15 15 14 14 14 14 13 13 13 13 13 14 14 15 16 17 17 18 18 19 19 20 20 20 20 19 20 20 20 20
26 26 26 25 25 25 24 24 24 24 23 23 23 23 23 22 22 22 21 21 21 21 22 22 22 21 21 21 21 21 20 19 19 19 19 20 19 19 19 19 19 19 19 19 19 19 19 18 18 18 18 18 18 17 17 16 15 14 14 14 13 13 13 13 13 13 13 14 15 16 16 17 18 18 18 19 19 19 20 20 20 20 20 20 20
25 25 25 25 25 24 24 24 24 24 23 23 23 23 22 22 22 22 21 21 21 21 21 21 21 21 21 21 21 21 20 19 19 19 19 20 19 19 19 19 19 19 18 19 19 19 19 18 18 18 18 18 18 18 17 16 15 14 14 14 14 13 13 13 13 13 14 14 15 15 16 16 17 18 18 19 19 19 20 20 20 20 20 20 20
25 25 25 25 24 24 24 24 23 23 23 23 23 23 22 22 22 22 21 21 21 21 21 21 22 21 21 21 21 21 20 20 20 19 19 19 19 19 19 19 19 18 18 18 18 18 19 18 18 18 17 17 17 17 16 16 15 15 15 14 14 14 14 13 13 13 14 14 14 15 15 16 17 17 18 18 19 19 20 20 20 20 19 19 19
25 25 25 24 24 24 24 23 23 23 23 23 23 22 22 22 22 22 22 21 21 21 21 22 22 21 21 21 21 20 20 20 20 20 19 19 19 19 19 19 19 18 18 18 18 18 18 18 18 18 17 17 17 17 16 16 16 15 15 15 15 15 15 14 14 14 14 14 14 15 15 16 16 17 17 18 19 19 19 19 20 20 19 19 19
25 25 25 24 24 24 24 24 23 23 23 23 22 22 22 22 22 22 22 22 22 22 22 22 22 21 21 21 21 20 20 20 20 20 19 19 19 19 19 19 18 18 18 18 18 18 18 17 17 17 17 16 16 16 16 16 15 15 15 15 16 16 16 15 15 14 14 14 14 15 15 16 16 16 17 17 18 19 19 19 19 19 19 19 19
25 25 24 24 24 24 24 24 23 23 23 23 23 22 22 22 22 22 22 22 22 22 22 22 21 21 21 21 20 20 20 20 20 20 19 19 19 19 18 18 18 17 17 17 17 17 17 17 16 16 16 15 15 15 16 16 15 15 14 15 15 16 15 15 15 15 15 15 15 15 16 16 16 16 16 17 17 18 19 19 19 19 19 19 20
25 25 24 24 24 24 24 24 23 23 23 23 23 22 22 22 22 22 22 22 22 22 22 22 21 21 21 20 20 20 20 20 20 19 19 19 19 19 18 18 17 17 17 17 17 17 17 17 17 16 16 16 16 15 15 16 15 15 14 14 15 15 15 15 16 15 15 15 15 16 16 16 16 16 16 17 17 17 18 19 19 19 19 19 19
25 25 25 24 24 24 24 24 24 23 23 23 23 23 22 22 22 22 22 22 22 22 22 21 21 21 21 21 20 20 20 20 20 19 19 19 18 18 18 18 17 17 17 17 17 17 17 17 17 17 17 17 17 16 15 16 15 14 14 15 15 15 15 15 15 15 15 15 15 15 15 15 15 15 16 16 16 17 18 19 19 19 18 18 18
26 25 25 24 24 24 24 24 24 23 23 23 23 23 23 23 23 22 22 22 22 22 22 22 21 21 21 21 21 20 20 20 20 19 19 19 18 18 18 18 17 17 17 17 17 17 17 18 18 18 18 17 17 16 16 15 15 14 14 15 15 15 15 15 15 15 15 14 14 14 14 15 15 15 15 15 15 16 16 17 18 18 18 18 18
26 25 25 25 24 24 24 24 24 24 23 23 23 23 23 23 23 23 22 22 22 22 22 22 22 21 21 21 21 21 20 20 20 19 19 18 18 18 18 17 16 17 17 17 17 17 18 18 18 18 18 17 17 16 16 15 15 15 15 15 14 14 15 15 15 15 14 14 14 14 15 15 15 15 15 14 15 15 15 16 18 18 18 18 19
26 25 25 25 25 25 24 24 24 24 24 23 23 23 23 23 23 23 22 22 22 22 22 22 21 21 21 21 21 21 20 20 20 19 18 18 17 17 17 16 16 16 17 17 17 17 17 18 18 18 18 17 17 16 16 15 15 15 15 14 14 14 15 15 14 14 14 14 14 15 15 15 16 16 15 15 15 15 15 16 18 18 18 18 19
26 25 25 25 25 25 25 24 24 24 24 24 23 23 23 23 23 23 23 22 22 22 21 21 21 22 22 21 21 21 20 20 19 19 18 18 17 17 17 16 16 16 16 16 16 17 18 18 18 18 17 17 17 16 16 16 15 15 15 14 14 14 15 15 14 14 14 14 14 14 15 15 16 16 16 15 15 15 15 16 17 18 18 18 19
26 26 25 25 25 25 25 24 24 24 24 24 23 23 23 23 23 22 22 21 22 22 22 21 21 21 21 21 20 19 18 18 18 18 18 17 17 17 17 16 16 16 16 16 16 17 18 18 18 17 17 17 17 16 16 16 15 15 15 14 15 15 15 14 14 14 14 14 14 14 14 15 16 17 17 16 15 15 16 16 17 18 19 19 19
26 26 26 26 25 25 25 25 24 24 23 23 23 23 23 22 22 22 21 21 21 21 21 20 19 18 18 17 17 17 17 18 18 18 17 17 17 17 17 16 16 16 15 16 16 17 17 17 17 17 17 17 17 16 16 15 15 15 14 15 16 16 15 14 14 14 14 14 14 14 14 14 15 16 17 17 17 17 17 17 18 19 19 19 19
27 26 26 25 25 25 25 25 24 23 23 23 22 22 22 22 21 21 20 19 20 19 19 18 17 16 16 16 16 17 18 18 18 17 17 17 16 16 16 16 16 15 15 15 15 16 17 17 17 17 17 17 17 16 16 15 14 14 14 15 16 15 14 15 15 13 13 14 14 14 14 14 14 15 16 17 18 18 18 18 18 19 19 20 20
26 26 26 25 25 25 24 23 22 22 22 21 21 21 22 21 21 20 19 17 17 17 18 18 17 16 16 16 16 17 18 18 17 17 16 16 16 16 16 16 16 15 15 15 16 16 16 17 17 17 17 17 17 16 16 15 14 14 14 15 15 15 14 14 14 13 13 14 14 13 14 14 14 14 15 16 17 18 19 19 19 19 19 20 20
26 25 25 25 24 23 22 22 20 20 20 20 21 21 21 20 20 19 18 16 16 16 18 18 17 16 16 16 16 17 17 17 17 16 16 16 16 16 16 16 16 16 16 16 16 16 16 16 17 17 17 17 17 16 15 15 14 14 14 14 14 14 13 13 12 12 13 13 13 13 14 13 14 14 14 15 17 18 18 19 19 20 20 20 20
24 24 24 23 23 22 21 20 18 18 19 20 21 21 20 19 18 18 17 16 17 17 18 18 18 17 17 16 16 16 16 16 16 15 15 16 16 16 16 15 15 15 16 16 16 16 16 17 17 17 17 17 17 16 15 15 14 13 13 13 13 12 11 11 11 12 12 12 13 13 13 13 14 14 14 14 15 16 17 18 18 19 20 20 20
23 23 23 22 22 21 20 19 18 18 19 20 20 20 19 19 18 17 17 17 18 18 18 18 18 17 17 16 16 16 16 16 15 14 15 15 16 16 15 14 14 15 15 15 16 16 17 17 17 17 17 17 16 16 15 14 14 13 12 12 12 11 11 11 11 11 12 12 12 13 13 13 14 14 14 14 14 14 15 16 17 18 19 19 20
23 23 23 22 22 22 21 20 20 21 21 20 20 19 19 18 18 17 16 17 18 18 18 18 18 18 17 16 16 16 16 15 14 14 14 14 15 14 13 13 13 14 14 14 15 16 17 17 17 17 17 16 16 15 15 14 13 13 12 12 11 11 11 11 11 12 11 12 12 12 13 13 13 14 14 14 14 14 14 14 16 17 18 18 18
23 23 23 23 23 22 21 21 21 21 20 20 19 18 18 17 17 16 16 16 16 16 16 17 16 17 16 15 15 16 15 13 13 13 13 13 14 13 13 13 13 14 14 14 15 16 17 17 17 17 16 16 15 14 14 14 13 13 12 12 11 11 11 11 11 11 11 11 12 12 12 13 13 13 13 14 14 14 14 13 14 15 16 16 17
23 23 24 24 23 21 21 20 20 20 20 19 19 17 17 17 17 16 15 15 15 15 15 15 14 15 15 14 14 14 13 12 12 13 13 13 13 13 13 13 13 14 14 15 15 16 17 17 16 15 15 15 14 13 13 13 13 12 12 12 12 11 11 10 10 11 11 11 11 12 12 12 13 13 13 13 14 14 14 14 13 13 13 14 14
23 23 24 23 22 21 21 20 21 20 20 19 18 17 16 16 16 15 14 14 14 14 14 13 13 14 14 13 12 12 12 12 12 13 13 13 13 13 13 13 13 14 15 15 16 16 16 16 15 14 14 14 13 13 13 12 12 12 12 12 12 11 10 10 10 10 11 11 11 11 12 12 12 13 13 13 13 14 14 14 14 13 13 13 13
23 23 23 23 21 21 20 20 20 20 20 20 19 17 16 15 14 13 13 13 13 13 13 13 13 13 13 12 12 12 12 12 12 12 13 13 13 13 13 13 13 14 15 15 16 16 15 15 14 14 13 13 13 12 12 11 11 11 11 11 11 11 10 10 10 10 10 11 11 11 11 11 11 12 13 13 13 13 14 14 14 14 13 13 13
23 23 22 22 21 21 21 20 20 20 20 19 19 18 16 15 14 12 11 11 11 11 12 12 12 12 12 12 12 11 12 12 12 12 12 12 12 13 13 13 13 13 14 14 14 14 14 14 13 12 12 12 11 11 11 10 10 10 10 10 10 10 10 10 10 10 10 10 10 11 11 11 11 12 12 12 12 13 13 13 13 14 14 13 13
22 22 22 21 21 21 21 21 20 20 19 18 18 17 16 16 15 13 12 11 11 11 11 11 11 11 11 11 11 12 12 11 12 12 12 12 13 13 14 14 13 12 12 13 12 12 12 11 11 10 10 10 10 10 9 9 9 9 9 9 9 9 9 9 9 9 10 10 10 10 11 11 11 11 11 12 12 12 13 13 13 13 14 13 13
21 21 21 20 20 20 20 20 19 19 18 18 17 17 16 16 16 15 14 14 13 12 12 11 11 11 11 11 11 12 11 11 11 12 12 12 13 14 14 14 13 12 11 11 11 10 10 10 9 9 9 8 8 8 8 8 8 8 8 9 9 9 9 9 9 9 9 10 10 10 11 11 11 11 11 11 11 11 12 12 13 13 13 13 14
21 20 20 19 19 19 19 18 18 18 18 18 17 17 17 17 16 15 15 15 14 13 13 12 11 11 11 11 11 11 11 11 11 11 12 12 12 13 13 13 12 11 10 10 10 9 9 9 8 8 8 8 7 7 7 7 7 7 8 8 8 8 9 9 8 8 9 9 10 10 11 11 11 11 11 11 11 11 11 11 12 12 13 13 14
20 19 19 18 18 18 18 17 17 17 17 17 17 17 17 17 16 15 15 14 14 14 13 13 12 11 10 10 10 11 11 11 11 11 11 11 11 11 11 11 11 10 10 9 9 9 9 8 8 8 8 8 8 8 7 7 7 7 8 8 8 8 8 8 8 8 8 9 9 10 10 11 11 11 11 11 11 11 11 11 11 12 12 13 13
19 18 18 18 18 18 17 17 17 17 17 17 16 16 16 16 16 15 15 14 14 13 13 12 11 10 10 10 11 11 11 11 11 11 11 11 11 11 10 10 10 9 9 9 9 9 9 8 8 8 8 8 8 8 8 7 7 8 8 8 8 8 8 8 8 7 8 8 8 9 10 10 11 11 11 11 11 11 11 11 11 11 11 12 12
18 18 18 17 17 17 17 17 17 17 17 16 16 16 16 16 15 15 14 14 13 12 12 11 10 9 9 9 10 11 12 11 11 11 11 11 10 10 9 9 9 9 9 9 9 9 9 9 8 8 8 8 8 8 8 8 8 8 8 8 8 7 8 8 7 7 7 7 8 8 9 10 10 11 11 11 11 11 11 11 10 11 11 11 11
18 17 17 17 17 17 17 17 17 17 17 16 16 16 16 16 15 15 15 14 13 12 12 12 10 9 8 9 10 11 11 11 11 11 11 10 10 9 9 8 8 8 8 8 8 9 8 8 8 8 8 8 8 8 8 7 7 8 8 8 7 7 7 7 7 7 7 7 7 8 8 9 10 10 10 11 11 11 11 10 10 10 11 11 11
18 17 17 17 17 17 17 17 16 16 16 15 15 15 15 15 15 15 15 14 14 14 13 12 10 9 8 9 9 10 11 11 11 11 10 10 9 8 8 8 8 8 8 8 8 8 8 8 8 8 8 8 8 8 8 8 7 7 7 7 7 7 7 7 7 7 7 7 7 8 8 9 9 9 9 10 11 11 11 10 10 10 10 10 10
17 17 17 17 17 17 17 16 16 15 15 15 15 15 15 15 15 15 15 15 15 15 14 12 10 9 9 9 9 10 10 10 10 10 10 9 9 8 8 8 8 8 8 8 8 8 8 8 8 8 8 8 8 8 8 8 7 7 7 7 6 6 6 6 6 6 6 7 7 8 9 9 9 9 9 9 10 11 11 10 10 10 10 10 10
17 17 17 17 16 16 16 16 15 15 15 15 15 15 14 14 14 15 15 16 16 15 13 12 10 10 9 9 9 9 10 10 10 10 10 9 9 9 8 8 8 8 8 8 8 8 8 8 8 8 8 8 8 8 8 7 7 6 6 5 5 5 4 4 4 5 5 6 7 8 9 9 9 9 9 9 10 10 10 10 10 10 10 10 10
17 17 16 16 16 16 16 15 15 15 15 15 15 14 15 15 15 15 16 16 16 15 14 12 10 10 10 10 10 10 10 9 9 9 9 9 9 9 9 9 8 8 8 8 8 8 8 8 8 8 8 8 8 7 7 6 6 5 5 4 4 4 4 4 4 4 4 5 6 7 8 9 9 9 9 9 9 9 10 10 10 10 10 9 9
17 17 16 16 16 15 15 15 15 15 15 15 15 15 15 15 15 16 16 16 16 16 15 13 12 12 11 10 10 10 10 9 9 9 9 9 9 10 10 10 9 9 9 8 8 8 8 8 8 8 8 7 7 7 7 6 5 4 4 4 4 3 4 4 4 4 4 5 6 6 7 9 9 8 8 9 9 9 9 9 9 10 10 9 9
16 16 16 15 15 15 15 15 15 15 15 15 15 15 15 15 16 16 16 15 15 15 14 14 13 13 11 11 10 11 10 10 9 9 9 9 9 10 10 10 10 9 9 9 8 8 8 8 8 7 7 7 7 7 6 6 5 4 4 4 4 4 4 5 5 5 5 5 6 6 7 8 9 8 8 8 9 9 9 9 9 10 10 10 9
16 16 16 16 15 16 16 16 16 16 16 16 16 16 15 16 16 16 15 14 14 14 14 14 14 13 12 11 12 12 11 11 10 10 9 10 10 10 10 10 10 9 9 8 8 8 8 8 7 7 7 7 6 6 6 5 4 3 3 4 4 4 5 5 5 5 5 6 6 6 7 8 8 8 8 8 8 8 9 9 9 10 10 10 10
17 17 17 17 17 17 16 16 16 16 16 16 16 16 16 16 15 15 15 14 14 13 13 14 14 14 13 13 13 12 12 11 11 11 10 10 10 10 9 9 9 9 9 8 8 8 7 7 7 7 7 7 6 6 5 4 3 3 3 3 4 4 4 5 5 5 5 6 6 7 7 8 8 8 8 8 8 8 9 9 9 10 10 10 10
17 17 17 17 17 17 17 16 16 16 16 16 16 16 15 15 15 15 15 14 14 13 13 14 14 13 13 13 13 12 11 11 12 11 11 11 10 9 9 8 8 9 9 8 8 8 7 7 7 7 7 7 6 5 4 4 3 3 3 3 4 4 4 5 5 5 5 6 6 6 7 7 8 8 8 7 7 8 8 9 9 10 10 10 10
17 17 17 17 17 16 16 16 16 16 16 16 15 15 15 15 15 15 15 14 14 14 13 14 14 13 12 12 12 12 12 11 11 11 11 11 10 9 9 8 8 9 9 8 8 8 7 7 7 7 7 6 6 5 4 3 3 3 3 3 4 4 4 5 5 5 5 6 6 6 7 7 7 7 7 7 7 8 8 8 9 9 10 10 10
17 17 17 17 17 16 16 16 16 16 16 16 16 16 15 15 15 15 15 14 14 14 13 13 13 13 13 12 12 12 12 11 11 11 11 10 10 9 9 8 8 8 8 8 8 8 7 7 7 7 7 7 5 4 3 3 3 3 3 3 3 4 4 4 5 5 5 6 6 6 6 6 7 7 7 7 7 7 8 8 9 9 9 9 10
Height
798 800 801 803 804 805 806 807 808 808 808 809 809 809 809 809 808 808 807 808 808 808 808 808 808 808 807 807 806 806 806 805 805 804 803 802 802 801 801 800 800 800 799 799 799 798 797 796 795 794 794 793 791 790 788 787 786 784 784 782 780 780 777 775 771 762 757 759 758 755 755 756 755 754 754 753 753 754 754 754 756 758 759 759 759
796 798 800 801 802 804 805 806 807 807 807 808 808 808 808 807 806 806 805 806 806 806 806 806 806 806 806 805 805 805 804 804 803 803 802 801 801 800 799 799 798 798 798 797 797 796 795 794 794 793 792 791 790 789 787 786 784 782 781 780 778 776 775 773 770 763 756 754 755 752 751 752 751 751 751 750 750 750 750 751 752 753 754 755 755
794 796 798 799 801 802 804 805 806 806 806 807 807 807 806 805 804 804 804 804 804 804 804 804 804 804 803 803 803 803 803 802 802 801 801 800 799 799 798 797 796 796 796 795 795 794 794 793 792 791 790 789 788 787 785 784 782 781 779 778 777 774 772 771 769 764 756 751 750 748 747 747 747 746 747 747 746 746 746 747 747 748 749 750 750
792 795 796 797 799 800 802 804 805 805 805 805 805 805 805 803 803 802 803 803 802 802 802 801 801 801 801 801 801 801 801 801 800 800 799 799 798 797 797 795 795 794 794 793 793 792 792 791 790 790 789 788 786 785 783 782 780 778 777 776 775 772 769 767 766 763 757 750 747 745 743 743 743 742 742 743 743 743 742 742 743 744 745 745 745
788 790 792 795 796 798 800 802 803 803 803 804 804 803 803 802 801 801 801 801 801 800 800 800 800 799 799 799 799 799 799 799 798 798 798 797 796 796 795 795 794 793 792 792 791 791 790 789 789 788 787 786 784 783 782 780 777 776 775 773 772 770 767 764 762 761 756 749 745 742 740 739 738 737 738 738 738 739 738 738 739 740 741 741 740
785 787 789 791 794 796 798 799 801 801 802 802 802 802 802 801 801 800 800 800 800 799 799 798 798 798 797 797 797 797 797 796 796 795 795 795 794 793 793 793 793 792 791 790 790 789 788 787 787 786 785 784 783 781 780 778 776 774 772 771 769 767 764 761 758 757 754 748 744 739 736 735 734 732 733 734 734 734 734 734 735 736 736 736 736
782 785 787 789 792 794 796 797 798 799 800 800 801 801 800 800 800 799 798 798 798 798 797 797 796 796 796 795 795 795 795 794 793 793 793 792 792 791 791 791 791 791 790 789 789 788 786 786 785 784 783 782 781 780 778 776 774 772 770 768 766 764 761 758 755 753 750 746 742 737 733 731 730 729 729 730 730 730 730 731 731 731 732 732 732
780 782 785 787 790 791 793 795 796 797 798 798 799 799 799 799 798 798 798 797 797 796 796 795 794 794 794 793 793 793 792 791 791 791 791 790 790 790 790 790 789 789 789 788 787 786 785 784 783 781 781 780 778 777 776 774 772 770 768 766 764 761 758 755 752 749 747 743 739 735 731 728 726 725 725 726 725 725 726 727 727 726 727 727 727
779 782 783 785 788 789 791 793 794 795 796 796 797 797 797 797 797 797 796 796 796 795 794 793 792 792 791 791 791 791 790 790 790 790 789 789 788 788 788 788 788 787 786 785 785 784 783 782 781 779 778 777 776 775 773 772 770 768 766 764 761 759 756 752 749 746 743 739 736 732 729 725 723 722 721 721 721 721 722 723 723 722 724 723 723
778 780 782 783 786 788 790 791 792 793 793 794 795 794 795 795 795 795 794 794 794 793 792 791 790 790 789 789 789 788 787 787 787 787 787 787 787 787 787 786 786 785 784 783 782 781 781 780 779 778 777 775 774 772 771 769 768 766 764 762 759 756 753 750 746 744 741 737 733 731 727 723 721 720 718 717 717 718 718 719 719 719 721 720 719
776 778 779 781 784 785 787 788 789 790 791 792 792 792 792 792 792 792 792 791 791 790 790 789 788 788 787 787 787 786 784 785 785 785 785 785 785 785 784 784 783 782 781 781 780 779 778 778 777 776 775 774 772 770 768 767 765 764 762 759 757 754 752 748 744 741 739 735 731 729 726 722 719 718 716 714 713 714 714 715 715 716 717 717 715
774 776 777 779 781 783 785 786 787 788 788 789 789 789 790 790 790 790 789 789 789 788 788 787 786 786 785 784 784 783 782 782 782 782 782 782 782 782 782 781 780 780 779 778 777 776 776 775 775 774 773 771 770 768 766 764 763 761 759 757 754 752 749 747 743 739 736 733 729 725 723 720 716 714 713 711 709 709 709 710 711 712 713 713 711
771 773 775 777 778 780 782 783 784 785 785 786 787 787 787 787 787 787 787 787 786 786 786 785 784 784 783 782 781 780 780 780 780 780 779 779 780 780 779 779 778 777 776 775 775 774 773 773 772 771 770 768 767 766 764 762 761 759 756 753 751 748 745 743 741 737 734 731 726 721 718 717 712 710 710 709 707 705 705 705 706 707 709 709 708
768 771 773 774 775 777 779 780 781 782 782 783 784 784 785 785 785 785 785 784 784 783 783 782 782 781 780 779 779 778 778 777 777 777 777 777 777 777 777 776 775 775 774 773 773 771 771 770 769 767 766 764 765 765 762 760 758 756 753 750 747 745 742 739 736 734 731 728 723 717 713 712 708 704 705 705 704 702 701 700 701 702 703 703 703
765 768 770 771 772 774 775 776 778 778 779 781 781 782 782 782 782 783 782 782 782 781 781 780 780 779 778 777 777 776 775 775 775 775 774 774 774 774 774 773 772 772 771 771 771 770 768 767 764 763 762 760 760 761 760 758 756 754 751 748 745 742 739 736 733 730 727 723 719 714 709 706 703 699 698 699 699 697 697 697 698 698 698 699 700
762 764 766 767 769 770 771 773 774 775 776 778 779 780 780 780 780 780 780 780 780 779 779 778 777 777 776 776 775 774 774 773 773 773 772 772 772 771 770 770 769 769 768 769 768 767 766 764 762 760 759 757 757 758 758 756 753 752 749 745 743 740 736 733 730 726 721 716 712 708 702 698 695 692 691 692 692 692 693 694 694 694 695 696 698
760 761 763 764 765 767 769 770 771 773 774 775 776 777 778 778 778 778 778 778 777 777 776 776 775 775 774 774 773 772 772 772 772 771 770 770 769 769 768 767 766 766 766 766 766 764 764 762 760 759 757 756 755 755 755 753 751 749 747 743 740 737 733 729 725 720 715 709 704 699 692 687 682 679 680 682 684 686 689 688 687 689 691 692 693
758 759 761 762 764 765 767 768 769 770 771 773 774 775 775 776 776 776 776 775 775 774 774 773 773 772 771 771 770 770 770 770 770 769 769 768 767 766 766 765 765 764 764 764 763 762 761 760 758 757 755 754 754 753 752 751 748 746 744 741 738 734 730 725 719 712 706 700 694 687 680 674 668 665 666 669 672 678 681 681 682 684 685 686 687
755 757 759 761 762 763 764 765 767 768 769 770 771 772 772 773 773 773 773 773 772 772 771 770 769 768 768 768 767 767 768 768 768 768 768 767 765 764 764 764 763 762 762 761 760 759 758 757 756 755 754 753 752 751 750 748 746 744 742 740 736 732 727 723 717 709 700 693 685 677 669 662 656 654 655 658 662 667 670 674 677 678 679 681 683
753 755 757 758 760 761 761 763 764 765 766 767 768 769 770 770 770 771 771 771 771 770 769 768 767 766 765 765 765 765 766 767 767 767 766 766 764 763 763 762 762 761 760 759 758 757 756 755 754 754 753 751 750 749 747 746 744 742 740 738 735 730 725 721 715 709 701 692 683 674 665 657 651 648 648 650 654 658 662 667 671 672 674 677 679
751 753 754 755 757 758 758 760 760 762 763 764 765 767 767 768 768 768 769 770 769 768 767 767 766 765 765 765 765 766 767 767 767 766 766 765 764 762 762 761 761 760 759 758 756 755 754 753 753 752 751 749 748 746 745 744 742 740 739 736 733 729 724 719 714 707 700 692 683 675 666 657 649 645 644 645 647 651 655 660 664 667 669 671 674
750 751 752 753 755 755 756 757 757 758 760 761 763 764 764 765 766 766 768 768 767 767 767 768 769 769 769 769 768 768 768 768 766 766 765 764 763 762 761 760 759 758 757 756 754 753 752 752 751 750 749 747 746 744 743 742 740 739 736 734 731 727 723 719 713 707 699 691 683 676 668 659 651 646 644 643 644 647 651 656 659 662 664 666 669
748 750 751 752 753 754 755 755 755 756 758 759 760 761 762 763 764 765 766 767 768 767 767 767 769 769 769 769 768 766 765 765 765 765 764 763 762 761 760 759 758 757 756 754 753 752 751 750 749 748 747 745 743 742 741 740 739 737 734 732 729 726 722 718 713 707 699 691 684 676 669 661 654 649 645 644 644 646 649 652 655 658 660 662 664
748 749 750 750 751 753 755 756 757 758 759 759 759 759 760 761 762 762 764 768 770 769 765 764 765 765 766 766 765 764 763 763 763 763 762 762 761 760 759 757 756 755 754 753 751 750 749 749 748 746 744 742 741 741 740 739 738 736 733 730 727 724 721 718 713 707 701 693 685 678 671 664 658 653 648 645 644 645 648 650 652 654 656 658 660
747 748 749 750 752 754 754 755 757 759 759 760 759 759 759 760 760 761 763 767 770 768 764 762 763 763 763 764 763 763 762 762 762 762 762 761 760 759 758 756 754 754 753 751 750 749 748 747 746 744 742 741 739 739 739 738 737 735 732 729 726 723 721 718 714 709 703 695 689 682 675 669 664 659 653 647 644 645 647 648 650 652 653 655 657
746 747 749 750 751 752 752 753 756 758 759 759 758 758 759 759 760 763 766 767 766 763 761 761 761 761 762 762 763 763 762 762 762 761 761 760 758 758 756 755 754 753 751 750 749 747 747 745 743 742 741 739 739 739 738 738 736 734 731 728 726 724 722 720 717 712 706 700 694 687 681 676 670 663 656 650 646 645 646 647 649 650 651 652 655
747 748 749 749 749 750 751 753 756 757 757 757 757 757 757 758 760 763 766 765 762 760 760 760 760 760 761 761 761 761 760 760 760 759 759 758 757 756 755 754 753 751 750 749 747 746 745 743 742 741 740 739 738 738 738 737 736 733 731 729 727 725 723 721 718 714 709 704 699 693 688 682 675 667 660 655 651 648 647 647 648 648 649 651 653
746 747 748 749 749 750 751 753 754 755 755 756 756 756 756 757 760 762 763 761 759 759 759 759 759 760 760 759 759 759 759 759 758 758 758 757 756 756 755 754 753 750 749 748 746 745 743 742 740 740 739 739 739 739 738 738 736 734 731 729 727 725 723 721 718 715 712 707 702 697 691 685 678 673 668 662 658 654 652 649 648 648 649 651 653
745 746 747 748 749 750 751 753 753 754 755 755 755 756 757 758 758 759 759 758 757 758 758 758 759 759 759 758 758 758 759 759 758 758 757 756 755 755 754 754 752 750 749 747 745 744 742 741 740 740 740 740 740 739 739 738 736 734 732 730 728 726 724 722 720 717 714 709 705 700 695 689 684 679 674 668 665 662 660 655 651 650 650 652 654
744 745 745 746 748 749 751 752 752 753 754 755 756 756 756 756 756 756 757 757 757 757 757 757 758 758 758 758 757 758 758 758 758 757 756 755 755 754 754 753 752 750 749 747 745 743 742 741 742 742 741 741 741 740 739 738 736 734 733 731 730 728 726 724 722 719 715 712 708 703 699 694 690 684 679 675 672 669 666 662 658 657 657 657 657
743 743 743 745 746 747 749 749 750 751 752 753 756 757 756 755 756 756 757 757 757 756 756 757 757 757 757 757 757 757 758 757 757 756 755 754 754 753 753 753 751 750 748 746 744 743 743 743 744 744 743 743 742 741 740 739 737 736 734 732 731 729 728 726 724 721 718 714 711 707 703 699 695 689 685 682 678 675 672 668 665 665 665 664 663
742 742 743 744 745 746 747 747 748 749 750 751 754 756 756 756 756 757 757 757 757 757 756 756 757 757 757 757 757 757 757 757 756 755 753 753 752 752 752 752 751 750 748 745 744 744 744 745 746 746 745 744 744 743 742 740 738 737 735 734 732 731 730 729 727 724 721 718 714 711 707 703 699 694 690 687 684 681 678 675 673 672 671 670 668
741 742 743 743 744 745 746 746 747 748 749 750 751 753 755 755 755 756 757 757 757 756 756 756 756 756 756 756 756 756 756 756 756 754 753 752 751 751 751 752 752 750 748 746 745 746 746 747 748 747 747 746 745 745 743 742 740 738 737 736 734 732 731 730 728 725 722 720 717 714 710 707 703 698 694 691 689 686 683 680 678 677 676 675 672
741 741 742 743 744 744 745 746 746 747 748 749 750 751 752 753 753 754 755 756 756 756 756 756 756 757 757 756 756 755 756 756 755 754 753 752 751 750 750 751 751 751 749 748 747 748 748 749 749 749 748 748 747 746 745 743 742 740 738 737 735 733 732 730 727 725 724 722 719 716 713 711 707 703 699 695 692 690 688 685 683 682 681 681 679
740 740 741 742 743 743 744 745 746 746 747 748 748 749 750 751 751 752 753 753 754 755 756 756 757 757 757 756 756 756 756 755 755 754 753 752 751 750 749 750 751 751 750 749 749 750 750 751 751 751 750 749 748 747 746 745 743 741 739 738 736 734 732 730 728 727 725 724 722 719 716 713 710 707 704 700 697 695 692 690 689 687 686 686 685
739 740 740 741 742 743 744 745 745 746 746 746 747 748 749 750 750 751 752 752 753 754 755 756 757 757 757 757 756 756 755 755 755 754 753 752 752 751 750 751 752 752 752 751 751 751 752 752 752 752 751 750 749 748 747 746 745 743 741 740 737 735 734 732 730 728 727 725 724 721 719 716 713 711 708 705 702 700 698 696 694 693 692 691 690
738 739 740 741 742 742 743 744 745 745 746 746 747 748 748 749 750 751 751 752 752 753 754 755 756 757 757 757 757 756 755 755 755 755 755 754 753 753 753 753 753 753 753 752 752 753 753 753 752 752 752 751 751 749 748 747 746 744 742 741 739 737 736 734 733 731 729 727 725 724 722 720 717 715 712 709 707 704 702 700 699 698 697 696 694
737 738 739 741 741 741 742 743 744 744 745 746 747 748 749 750 750 751 752 753 753 753 754 755 756 757 757 757 756 755 754 754 755 755 755 755 754 755 755 755 755 755 754 754 754 754 754 753 753 753 752 752 752 751 749 748 747 746 744 742 741 739 738 736 734 733 731 729 728 726 725 723 721 719 716 714 712 709 707 705 704 702 702 701 699
736 737 739 740 740 741 741 742 743 744 745 746 747 748 749 749 750 751 752 753 754 754 754 755 756 757 757 756 755 754 754 754 755 756 756 755 756 756 756 756 756 755 755 755 755 755 754 754 754 753 753 753 752 751 750 749 748 747 746 744 742 740 739 738 736 734 733 732 730 729 727 726 724 722 720 718 716 714 712 710 709 708 707 707 705
735 736 738 738 739 740 740 741 742 743 744 745 747 748 748 749 750 751 751 752 753 753 754 755 756 757 757 756 755 754 754 755 756 756 756 757 757 757 757 757 756 756 756 756 756 756 755 755 754 754 754 753 752 752 751 750 749 748 747 746 744 742 741 740 738 737 735 734 733 731 730 728 727 725 723 722 720 719 717 715 714 712 712 710 708
735 736 737 738 739 739 740 741 742 743 744 746 746 747 748 749 749 750 751 751 751 751 752 753 755 756 757 757 756 755 756 756 757 757 757 758 758 758 758 757 757 757 757 757 757 757 756 756 755 755 754 754 753 753 752 751 750 749 749 748 746 745 743 742 740 739 737 736 735 734 732 731 729 728 726 724 723 722 721 719 718 716 715 713 711
735 736 737 738 739 739 739 741 742 743 745 746 746 747 748 748 749 750 750 749 749 750 751 752 754 755 756 756 757 757 757 757 758 758 758 759 759 758 758 758 758 757 757 757 757 757 757 757 756 756 755 754 754 753 753 752 751 750 750 749 748 747 745 743 742 740 739 737 736 735 734 733 731 730 728 726 725 724 723 722 721 719 718 716 713
735 736 737 738 738 739 739 741 742 743 745 745 746 747 748 748 749 749 748 748 748 749 750 751 753 754 755 756 757 757 757 758 758 759 759 760 760 759 758 758 758 758 758 758 757 758 758 757 757 756 756 755 755 754 754 753 752 751 751 750 749 748 747 745 743 741 740 739 737 737 736 735 733 732 730 728 727 726 725 724 723 721 720 718 716
735 736 737 738 738 739 740 741 742 743 744 745 746 747 747 748 748 748 747 747 747 747 748 750 752 754 755 756 757 757 758 759 759 760 760 760 759 759 758 758 758 758 758 758 758 758 758 758 757 757 756 756 756 755 755 754 753 752 751 751 750 749 747 746 744 743 742 740 739 738 737 736 735 734 732 730 729 728 726 725 724 723 722 721 719
734 735 736 737 738 739 740 741 742 743 744 745 745 746 746 746 746 746 747 747 747 747 748 749 751 752 754 756 757 757 758 759 760 760 760 760 759 759 758 758 758 758 758 758 758 758 758 758 758 757 757 757 756 756 756 755 754 753 753 752 751 750 748 747 746 744 743 742 740 739 738 738 737 735 734 733 731 730 729 727 726 725 723 722 721
734 735 736 737 738 739 740 740 741 742 743 744 744 744 745 745 745 745 746 747 747 747 748 748 748 750 753 755 756 756 756 758 759 759 759 759 759 759 758 758 758 758 758 758 758 758 758 758 758 757 757 757 757 757 757 756 755 755 754 753 752 751 749 748 747 745 744 744 742 740 740 740 739 737 736 735 733 732 731 729 728 726 725 724 723
734 735 735 736 737 738 739 739 740 741 742 743 743 743 744 744 744 745 746 746 747 747 747 746 747 749 751 753 753 754 754 756 756 757 757 758 758 758 758 758 757 758 758 758 758 758 758 758 758 758 758 758 758 758 758 757 756 756 755 753 752 751 750 749 748 746 746 745 743 742 741 741 740 739 738 736 735 734 732 731 729 728 727 726 724
733 734 734 735 736 737 738 738 740 741 741 742 742 742 743 743 744 744 745 745 746 747 747 746 746 748 750 751 752 753 754 755 754 755 756 756 756 757 758 757 758 758 758 758 759 759 759 759 759 759 759 759 758 758 758 757 757 756 755 754 753 752 750 749 749 747 747 746 745 743 743 743 742 741 739 738 736 735 734 732 731 729 729 728 726
733 734 734 734 735 736 736 738 739 740 740 741 741 741 742 743 743 744 744 744 745 747 747 746 746 748 750 751 751 752 754 754 754 754 755 755 756 757 757 758 758 759 758 758 759 759 759 759 759 759 759 759 759 758 758 758 758 757 756 755 754 753 752 751 750 749 748 747 746 745 744 744 744 742 741 740 738 736 735 734 732 731 730 729 728
732 733 733 734 735 735 736 737 738 739 739 739 740 740 741 741 742 742 743 743 744 745 746 746 747 749 750 750 751 751 753 753 754 754 755 755 756 757 757 758 758 758 758 759 759 759 759 759 759 759 759 759 758 758 758 758 758 757 757 756 755 753 752 752 751 750 749 748 747 746 745 745 745 744 743 741 740 738 737 735 734 732 732 731 730
731 731 732 732 732 733 734 735 735 736 737 738 738 738 739 739 739 740 741 742 743 745 746 747 748 748 749 749 750 751 752 753 754 754 754 755 756 756 757 757 758 758 758 758 758 758 759 759 759 759 759 759 758 758 758 758 758 757 757 756 755 754 753 752 751 751 750 749 748 747 747 747 746 745 744 743 742 740 739 737 736 734 733 732 731
Wind_Speed
18 17 15 12 11 10 10 10 9 9 9 9 9 8 8 9 10 10 11 11 10 11 12 12 12 13 13 13 13 14 14 14 13 12 11 11 11 11 10 10 11 12 12 11 11 11 12 13 15 16 16 17 19 21 21 22 23 24 24 23 24 23 23 21 15 15 25 27 26 30 31 29 28 28 26 25 26 28 29 29 28 31 34 36 36
19 17 15 13 12 11 10 10 10 10 10 9 9 9 10 12 12 12 12 11 10 11 11 12 12 13 14 14 15 15 15 15 14 13 12 12 11 11 10 10 11 12 12 12 11 11 11 13 14 15 15 15 17 18 19 21 22 23 24 22 22 23 23 24 21 17 20 26 27 30 31 29 28 29 29 28 28 29 30 31 31 34 37 38 38
19 18 16 13 12 11 10 11 10 10 10 10 10 10 11 13 13 14 13 11 10 11 11 12 13 14 15 15 15 15 16 16 15 14 13 13 13 13 13 12 11 12 12 11 11 11 11 12 13 14 14 15 16 16 17 19 20 22 23 22 21 22 23 24 24 22 21 24 27 28 27 26 26 28 29 30 30 29 30 31 33 35 37 37 39
19 17 16 13 12 11 11 11 11 10 10 11 10 10 11 12 11 10 11 11 12 13 12 13 14 15 15 14 14 15 15 16 15 14 14 14 15 15 15 14 13 13 12 11 11 11 11 12 12 12 13 14 14 14 15 17 20 21 22 22 22 22 22 23 25 26 26 25 26 28 27 26 27 28 27 27 29 29 29 31 33 35 37 37 38
22 20 17 13 12 12 12 12 11 11 11 10 10 10 11 11 9 9 11 12 13 13 12 11 13 15 14 13 14 15 15 16 17 17 15 14 15 16 16 16 15 14 13 12 12 11 11 11 11 10 12 13 13 14 15 17 20 20 20 22 23 23 23 24 25 27 27 26 25 27 29 27 28 29 27 25 26 27 27 30 33 34 36 37 37
21 21 17 14 14 14 13 13 12 12 12 11 10 10 10 10 11 11 11 10 10 11 11 13 15 15 14 14 14 14 14 16 19 19 17 15 15 16 16 17 16 15 14 13 13 12 12 11 10 9 10 12 13 14 16 18 20 20 21 23 25 25 25 26 26 26 27 27 25 26 28 27 27 27 26 25 25 24 25 26 28 30 32 33 35
18 18 16 15 15 15 14 14 13 12 11 11 10 10 10 10 10 11 11 11 11 12 13 14 15 15 16 15 14 14 15 18 19 18 16 17 18 17 17 17 18 17 16 15 15 14 14 12 10 10 10 11 14 16 17 20 21 22 23 25 25 26 27 27 26 26 26 26 25 24 26 25 25 25 26 25 25 25 23 20 20 24 28 30 33
18 16 15 13 13 14 14 13 13 12 11 11 10 10 10 10 10 11 12 12 12 12 13 14 15 16 18 17 16 17 16 15 16 16 15 16 16 16 16 17 18 18 17 17 17 16 15 14 12 12 13 13 16 18 18 19 21 23 25 26 25 26 27 27 27 26 26 25 23 23 24 23 21 23 25 23 21 22 23 20 20 23 26 28 32
18 15 14 13 12 12 13 13 12 12 12 12 11 11 11 11 11 11 12 12 12 13 14 14 15 17 17 16 16 15 12 10 13 14 15 16 16 15 15 16 17 18 18 17 17 17 16 15 14 14 16 17 19 19 19 18 18 21 24 26 26 26 27 28 27 25 25 23 21 21 21 19 18 19 21 21 21 22 22 21 22 24 25 27 31
19 17 16 15 14 14 14 13 13 13 13 13 12 12 12 11 12 12 13 13 13 14 14 14 15 16 15 15 15 12 10 12 13 12 12 14 16 15 15 17 18 18 18 17 17 18 17 16 16 16 18 21 22 21 21 21 19 20 23 25 26 27 28 30 29 26 24 22 21 20 17 17 18 19 21 23 24 24 22 22 22 23 23 21 24
20 19 17 16 16 16 16 15 15 14 14 14 13 13 13 13 13 14 14 14 14 14 14 14 14 14 14 15 13 11 13 15 13 12 11 11 13 15 15 16 17 17 17 17 17 18 18 18 18 18 19 22 23 23 24 24 22 23 25 26 28 29 29 30 31 30 26 22 23 22 18 17 21 21 23 25 25 24 24 24 23 22 19 14 13
21 19 18 18 18 18 18 17 17 16 16 15 15 14 14 14 14 15 15 14 14 14 14 13 13 14 14 14 13 12 15 16 14 13 13 11 12 15 15 16 17 17 17 16 17 19 19 20 20 21 21 21 23 24 24 24 24 25 27 28 30 31 29 27 29 31 29 26 25 25 23 22 24 24 23 25 26 25 25 25 24 22 20 17 15
22 20 19 19 20 20 19 19 18 18 18 17 16 15 15 15 15 15 14 14 13 13 13 13 14 14 14 14 14 14 15 16 14 13 13 12 13 16 17 18 18 18 17 17 17 18 19 20 22 23 23 22 23 23 22 22 24 25 27 29 31 32 31 28 27 28 30 29 27 28 28 26 26 27 25 24 26 25 24 25 26 25 21 20 24
22 21 21 21 21 22 21 21 20 19 18 17 16 15 15 15 15 15 14 13 13 14 13 13 13 13 12 13 14 14 13 14 13 12 11 12 13 14 17 20 19 18 18 18 18 18 18 20 21 22 24 25 25 25 23 22 24 27 28 29 30 30 30 29 28 28 28 28 28 30 33 31 30 32 31 28 28 29 26 24 24 26 27 28 32
23 23 23 22 24 24 24 23 22 20 18 17 16 16 16 16 16 15 14 14 14 14 13 12 13 13 12 12 12 12 12 11 11 12 11 11 12 13 15 19 19 19 19 18 17 17 18 20 22 23 24 26 26 25 23 23 25 26 25 26 28 29 29 29 30 31 32 31 31 33 36 36 35 37 35 30 29 30 31 30 27 25 27 28 29
24 24 24 25 26 26 25 24 22 20 17 16 16 16 16 16 16 15 15 15 15 15 14 13 14 15 15 14 13 12 11 11 12 12 12 11 13 14 15 16 17 18 19 17 17 19 20 20 22 23 24 25 26 25 23 23 24 24 22 25 29 29 30 31 32 34 37 38 38 39 40 42 42 43 42 38 35 32 30 32 31 24 18 17 18
24 25 25 26 26 25 24 22 20 18 17 16 16 16 15 15 15 16 16 16 16 16 16 15 16 16 17 16 14 13 13 12 13 13 12 13 14 15 15 14 14 16 18 18 19 22 22 20 21 23 23 23 22 22 21 22 25 24 23 26 29 30 32 35 36 39 43 43 42 42 43 45 47 48 49 47 44 41 32 27 27 23 15 10 10
23 24 24 23 23 22 21 20 18 18 17 16 15 14 14 15 15 15 17 17 17 16 16 16 17 17 18 17 16 15 13 13 14 13 13 14 15 13 13 12 12 15 18 19 19 21 21 20 19 19 19 18 19 20 22 23 25 25 23 26 30 31 33 38 44 49 50 47 45 44 43 43 42 43 46 46 45 44 39 31 25 23 18 13 11
23 23 22 20 20 19 19 19 18 17 16 16 15 14 14 14 14 15 17 18 17 17 18 18 19 19 19 18 16 15 13 13 12 11 13 15 13 10 10 10 11 13 16 17 18 18 19 18 16 14 15 16 18 21 24 24 23 21 21 25 28 30 34 41 48 51 50 48 47 48 48 44 35 31 35 40 41 42 43 38 28 23 21 18 17
22 21 20 19 18 18 18 18 18 17 16 15 14 14 14 14 14 14 17 18 17 18 18 18 20 20 18 17 17 16 15 13 9 8 12 13 11 9 9 9 10 12 14 15 16 16 16 15 14 15 15 17 20 24 24 22 18 17 19 23 25 29 37 44 46 46 44 43 45 47 47 40 27 23 26 30 34 39 44 41 31 27 24 21 20
20 19 18 18 18 18 19 18 18 18 16 14 13 13 13 14 14 15 16 17 18 21 20 20 21 20 19 18 15 14 12 8 6 9 12 11 10 9 9 9 10 13 15 16 16 16 16 15 16 16 17 19 22 24 22 17 15 16 19 22 24 29 37 41 42 42 41 40 42 44 42 36 24 15 20 24 26 31 39 40 33 31 30 25 21
17 17 17 17 17 18 18 19 18 17 15 15 13 12 14 14 14 14 15 18 21 21 17 17 19 20 21 19 18 17 13 8 8 11 12 11 11 9 9 11 12 14 16 17 17 16 16 16 17 17 18 21 22 20 18 15 16 18 21 22 23 28 33 36 38 40 39 38 41 40 36 34 33 22 9 16 21 24 31 34 32 31 32 30 27
11 14 17 17 17 18 18 17 16 15 15 13 11 11 13 13 13 14 15 17 19 14 12 16 19 18 18 17 15 13 11 11 10 10 11 11 11 10 12 14 15 15 16 16 17 17 17 18 18 18 20 22 19 17 15 15 16 20 23 22 22 26 30 34 36 37 37 38 39 38 35 34 34 31 23 8 13 21 26 28 30 31 31 31 31
8 10 13 16 17 17 13 10 8 8 10 10 10 11 12 12 14 16 14 16 18 16 14 17 16 11 10 11 12 12 11 11 10 9 9 11 11 12 15 16 16 16 16 17 18 19 18 18 18 20 20 19 17 15 14 14 16 20 21 21 22 25 28 31 32 34 35 36 36 36 36 37 34 32 31 22 7 13 20 25 28 31 32 32 31
8 8 10 11 12 10 9 7 6 7 10 10 9 11 14 15 16 15 15 17 19 16 14 15 15 9 4 6 10 12 10 9 9 8 8 9 12 15 17 17 15 14 15 17 18 17 16 17 18 19 17 16 15 13 12 13 16 19 20 20 23 25 27 29 30 31 31 33 36 36 37 40 37 33 32 29 18 6 12 18 23 27 30 31 30
7 9 9 8 8 8 9 9 8 9 11 9 9 13 15 13 10 13 17 19 17 13 10 10 11 9 5 4 6 7 5 5 6 6 7 11 15 17 17 15 13 13 13 14 13 13 14 16 16 16 14 12 12 10 8 11 18 21 22 24 26 26 27 27 27 27 28 31 34 36 38 39 37 35 36 38 32 20 7 13 19 21 25 27 28
5 7 8 8 9 10 11 10 9 9 10 10 11 15 15 10 10 15 18 15 9 7 7 7 6 6 4 2 2 3 4 4 5 6 10 13 15 16 15 14 14 14 13 12 13 13 14 14 13 13 10 9 10 8 7 11 18 22 24 27 28 27 27 27 26 27 29 30 32 34 37 37 36 37 37 38 40 36 23 9 14 20 22 21 19
7 8 8 9 10 10 10 11 9 7 6 5 4 6 7 6 7 10 10 5 3 5 6 5 5 5 3 1 2 3 3 3 6 10 13 14 14 14 13 14 15 16 15 14 14 14 13 13 13 11 9 10 11 10 9 11 16 20 23 26 28 29 28 29 30 30 31 31 31 33 35 35 35 36 35 35 38 41 38 28 14 9 16 15 12
7 7 7 9 8 6 6 6 5 4 4 3 2 2 2 0 2 2 1 2 4 5 5 6 7 7 5 4 3 3 3 2 7 10 12 13 13 12 10 12 16 16 15 15 15 13 12 12 11 10 10 11 12 11 11 12 15 18 21 24 27 29 30 30 29 29 31 32 31 32 34 34 33 34 34 34 36 37 38 38 34 23 9 3 4
6 6 7 7 5 3 4 5 5 5 5 5 6 5 2 2 1 0 1 3 5 6 6 6 6 5 4 6 5 4 4 4 7 8 8 10 11 8 7 11 14 14 14 15 14 12 11 10 10 11 11 11 11 12 12 13 15 18 20 21 24 27 28 28 28 28 29 31 31 32 33 32 32 33 33 32 33 36 37 36 36 35 29 21 17
5 6 7 3 2 2 4 8 9 9 8 8 9 9 6 3 1 1 2 3 4 5 6 6 6 5 5 6 6 6 5 6 7 8 8 8 7 5 5 9 13 13 14 14 11 8 9 10 10 11 11 10 11 12 12 13 15 17 18 19 22 24 26 27 28 27 28 29 30 31 32 31 31 31 32 31 30 32 35 35 33 33 29 24 23
5 6 7 5 3 4 3 5 7 9 8 7 7 6 8 6 3 3 2 3 3 4 5 7 7 7 6 5 5 7 8 10 10 10 11 9 6 4 4 8 13 14 14 13 10 10 11 11 10 10 11 11 11 12 13 13 14 16 17 18 20 22 24 25 25 24 25 27 28 29 30 31 31 31 31 30 29 28 30 31 30 29 28 25 23
5 6 6 5 5 5 5 4 5 4 3 2 3 1 4 6 5 4 4 3 3 4 6 8 9 9 8 8 9 10 11 12 12 11 11 9 7 6 5 5 10 14 13 13 13 12 12 11 11 10 11 11 12 12 13 14 14 14 16 17 18 20 22 23 24 25 25 26 27 28 29 31 32 32 31 30 29 28 28 29 29 27 26 25 24
4 5 4 3 4 5 6 5 3 2 2 1 2 2 1 5 7 7 6 4 4 4 5 6 7 8 9 11 13 13 12 12 13 13 10 8 7 7 6 3 5 12 14 14 13 12 12 12 11 11 12 12 12 13 14 14 14 14 15 16 17 20 22 23 24 25 25 26 28 29 29 30 31 31 30 30 31 29 28 28 29 27 25 23 23
3 3 3 3 3 4 4 2 1 2 2 2 1 0 1 3 5 7 7 6 6 6 4 4 5 7 9 10 11 11 10 12 14 14 11 9 8 7 5 2 6 11 14 14 13 12 12 11 11 12 12 12 13 13 13 15 16 16 16 17 17 19 22 23 25 25 24 24 27 28 28 29 31 30 28 28 30 29 28 28 28 28 25 22 21
2 1 1 2 1 1 2 3 3 2 1 2 2 1 2 1 2 3 3 4 7 9 7 5 5 6 7 7 7 7 7 9 12 14 14 12 11 11 11 9 9 10 12 13 13 12 12 11 11 11 11 12 14 15 15 16 18 19 18 18 18 19 20 21 23 24 23 22 25 27 27 28 30 31 30 29 28 28 28 28 28 28 27 25 21
2 2 2 2 2 2 2 2 1 0 1 1 1 0 1 1 3 5 5 4 5 8 8 7 6 5 3 4 6 6 5 4 5 8 12 13 12 12 12 10 9 10 10 11 11 10 10 11 10 10 11 11 13 15 16 17 19 21 21 20 19 19 19 20 21 23 23 22 23 25 26 26 27 28 28 28 28 28 29 29 28 27 28 27 24
4 3 1 2 3 3 2 2 2 1 1 1 1 2 3 3 4 4 6 7 7 7 7 6 5 4 3 5 5 4 4 4 4 5 8 10 10 10 10 9 9 9 9 9 10 9 9 9 9 10 10 10 10 12 14 15 16 18 20 20 19 18 19 19 21 22 22 22 23 23 23 24 25 25 25 25 26 27 27 28 27 27 26 26 24
5 2 2 3 3 3 3 4 3 2 3 3 4 3 3 4 4 5 5 5 5 6 6 7 7 6 6 8 8 7 6 5 5 5 7 9 8 8 8 8 9 9 9 9 9 8 8 8 8 9 10 10 10 11 13 13 14 15 17 18 18 18 18 18 20 22 21 21 22 24 23 23 23 23 23 23 23 25 25 26 26 25 23 23 23
6 4 3 3 3 3 3 4 4 3 3 5 5 4 4 4 5 4 4 4 4 5 5 6 6 7 7 7 9 9 7 6 6 6 6 7 7 7 7 7 8 8 7 8 8 7 7 7 8 8 9 10 11 11 12 13 14 14 15 16 16 17 17 17 18 20 20 20 21 23 24 23 22 21 22 21 21 22 23 23 24 24 21 21 23
6 5 5 4 4 3 3 3 4 4 5 6 5 4 4 6 5 4 4 5 6 6 5 6 7 7 6 6 6 7 6 4 4 4 4 4 4 5 6 6 6 6 6 6 7 7 6 6 7 8 9 10 11 11 12 13 13 14 14 15 15 16 16 16 17 19 20 20 20 22 22 22 22 21 22 21 20 19 20 20 21 22 21 21 23
6 5 4 4 4 4 4 5 6 5 5 5 6 5 5 5 5 6 6 5 5 5 5 6 7 6 4 5 4 4 4 3 2 2 2 2 2 4 4 4 5 6 6 6 6 6 6 6 6 7 8 8 10 10 11 12 13 14 14 14 14 15 15 15 16 18 20 19 19 20 21 21 21 21 22 21 19 18 19 19 20 20 20 20 21
5 5 4 3 3 4 5 6 6 5 5 5 6 5 5 4 5 7 7 6 4 6 9 9 8 7 5 4 3 2 2 2 2 1 1 1 1 2 2 2 4 6 6 6 6 5 5 5 6 6 7 7 8 9 10 11 12 13 14 14 14 15 16 16 16 18 20 20 19 20 20 20 19 20 22 22 20 19 18 18 19 19 19 18 19
5 5 5 5 4 4 4 5 5 5 5 6 7 6 6 6 6 6 5 5 5 6 10 11 10 8 6 3 1 1 1 2 1 2 2 3 2 1 2 3 2 2 3 4 5 5 4 4 5 6 6 7 8 8 9 11 11 12 14 14 14 16 18 17 16 16 19 19 18 19 20 20 19 20 21 21 21 20 19 19 19 18 19 19 18
4 5 6 5 5 4 4 5 5 6 7 7 8 6 5 6 8 8 4 3 3 2 5 8 8 5 3 1 2 2 1 1 1 2 3 3 2 2 4 4 4 3 2 3 3 4 4 4 5 6 6 7 8 8 9 10 10 11 13 14 15 16 18 17 14 14 16 17 17 18 19 19 19 20 20 20 20 19 19 19 18 18 18 19 18
4 4 5 6 5 5 5 5 6 8 7 6 7 7 6 7 7 6 2 2 3 0 4 7 6 3 2 4 6 5 4 4 5 5 4 4 4 5 5 3 2 4 4 4 4 4 5 5 5 6 6 7 7 8 9 9 9 10 13 14 14 15 16 15 13 14 15 15 16 17 18 17 18 18 19 18 19 18 18 18 18 18 18 18 18
5 5 6 7 7 8 7 5 5 6 5 5 6 7 8 8 5 3 2 2 3 5 5 3 3 3 5 7 7 5 4 5 7 9 8 5 5 5 4 2 1 3 4 4 4 4 5 5 5 5 5 6 7 7 8 9 9 10 13 14 14 14 14 14 14 14 15 14 15 16 16 16 16 17 18 18 18 18 18 19 18 17 17 18 18
6 5 5 6 7 7 6 5 4 4 4 6 6 6 6 6 4 2 2 2 3 5 6 5 2 2 4 6 5 4 5 5 5 6 7 5 4 4 2 1 2 1 3 4 4 4 4 4 4 5 5 5 6 6 7 8 9 11 13 14 13 12 12 12 12 14 14 14 15 16 15 15 15 16 17 18 18 17 18 19 19 18 17 17 18
5 5 5 5 5 5 5 6 6 5 6 7 7 6 6 7 8 8 7 5 2 3 7 7 4 2 5 7 5 4 5 5 4 4 4 3 3 4 3 1 1 1 2 3 3 3 3 3 4 4 4 4 5 6 6 7 10 11 13 13 12 11 10 10 10 12 13 14 15 16 15 15 15 15 16 18 18 17 18 19 19 18 17 17 18
6 7 7 6 6 7 7 6 7 7 8 8 8 8 8 9 9 9 8 7 6 6 7 7 5 5 7 7 6 4 5 5 5 4 3 3 3 3 3 3 2 1 2 3 3 2 3 3 3 4 4 4 5 6 5 7 11 10 10 11 12 11 9 8 8 10 12 14 15 16 15 14 14 14 15 17 18 18 18 19 19 18 18 17 17
8 9 10 10 11 12 12 11 11 11 10 10 9 10 11 11 11 9 8 7 7 6 6 6 7 8 7 7 6 5 5 4 4 3 3 4 4 4 4 3 3 2 2 2 2 2 2 2 3 3 3 4 6 6 5 10 13 10 8 10 13 12 9 7 7 9 11 13 14 15 14 13 14 14 14 15 16 17 17 18 18 17 17 18 17
Wind_Direction
185 187 189 192 193 195 202 209 213 217 222 227 231 240 251 256 262 264 263 267 276 282 285 287 289 292 293 292 293 295 296 297 297 293 289 287 286 290 292 293 298 302 304 307 312 316 317 318 320 322 326 328 328 328 328 328 327 324 323 321 316 312 305 296 290 288 289 285 279 275 273 269 266 263 262 263 263 258 249 246 249 251 249 247 246
183 185 187 191 194 198 207 213 215 218 222 229 233 237 246 252 256 254 251 258 267 273 279 282 284 287 289 290 291 293 294 294 296 296 292 288 286 286 286 288 294 298 302 308 313 318 320 319 322 325 329 330 329 329 329 329 330 326 323 322 317 316 317 311 301 291 290 291 287 280 273 266 259 257 257 256 257 255 249 247 249 247 243 242 242
181 183 185 188 192 199 210 215 219 222 223 230 236 242 252 256 258 253 249 257 268 273 278 278 279 280 282 286 288 290 293 293 292 294 297 297 294 291 290 289 292 295 300 307 313 317 320 321 323 326 329 330 327 327 330 332 336 333 327 324 320 318 321 318 310 300 294 293 291 284 274 264 257 256 256 254 253 251 248 248 250 248 244 243 243
175 181 182 185 190 197 209 217 221 225 228 233 237 243 253 262 268 260 254 264 273 272 273 273 276 277 276 279 284 288 294 292 287 288 294 299 297 295 294 291 291 295 297 303 309 312 315 317 320 324 327 326 324 325 329 334 339 336 328 324 322 319 321 321 314 306 298 294 291 285 276 267 261 258 255 253 252 251 250 251 250 249 248 248 248
171 177 179 183 191 197 206 215 221 226 230 238 244 249 259 275 287 281 273 280 282 279 281 287 291 286 279 279 284 289 292 289 286 285 287 292 294 293 293 290 289 291 294 300 305 304 307 309 312 320 321 317 320 322 323 331 338 334 325 322 320 317 319 320 316 308 299 293 291 287 279 270 263 258 252 250 252 252 251 252 249 246 247 247 248
168 174 177 185 192 196 205 212 219 226 229 237 248 256 269 280 282 283 291 301 301 299 301 301 299 297 294 290 288 290 290 288 288 286 284 289 291 291 292 291 292 293 294 299 301 298 299 299 300 308 309 307 311 316 317 323 330 328 321 320 320 316 316 317 316 310 302 296 292 288 283 272 260 254 251 247 248 250 251 251 247 244 242 240 240
171 175 179 188 190 194 204 210 217 227 231 236 244 250 260 269 275 291 308 314 309 304 300 296 297 303 305 300 297 298 293 286 286 284 282 285 285 286 290 293 296 297 297 298 297 294 293 291 290 293 293 296 303 308 314 318 323 322 317 317 319 317 314 316 315 310 305 300 294 289 287 277 260 253 254 250 247 249 249 247 244 242 239 235 235
173 176 181 188 188 192 203 210 215 223 229 235 241 246 253 261 270 283 292 295 296 293 290 291 295 300 301 299 298 298 290 279 279 279 277 281 284 288 294 294 293 294 294 296 294 289 287 284 279 277 279 288 300 307 311 314 317 317 314 314 317 316 314 314 314 310 305 301 297 293 291 282 264 255 254 250 245 245 243 238 239 241 239 234 233
170 176 183 189 192 196 205 211 213 219 226 232 237 241 246 251 258 266 272 277 280 280 283 288 292 294 295 294 295 297 291 283 286 286 285 286 284 285 289 289 289 290 292 294 291 288 286 282 277 274 275 286 301 307 308 311 313 311 311 312 313 313 314 314 312 309 304 301 300 299 293 285 273 261 253 246 241 242 240 232 233 239 239 237 235
174 181 185 190 196 201 206 209 212 216 222 227 232 237 239 244 252 257 261 266 271 275 279 283 288 291 293 294 296 295 289 289 291 290 292 288 280 276 281 286 290 291 290 292 292 290 288 285 282 280 277 286 300 305 306 311 315 313 311 310 309 308 310 310 309 306 302 298 299 300 295 288 281 270 259 252 246 244 239 230 229 234 235 235 238
181 183 187 191 195 200 205 207 211 215 220 225 229 232 237 242 249 253 256 261 266 270 274 279 284 287 289 291 292 287 286 290 291 290 293 287 278 279 283 287 290 290 289 292 294 294 294 289 287 287 283 287 297 304 306 309 314 318 316 312 311 310 307 304 302 301 298 296 295 295 290 287 286 280 270 261 252 244 239 232 229 228 225 225 235
184 185 190 192 194 200 204 206 210 214 219 224 226 231 238 243 250 253 254 258 262 266 271 275 278 282 284 283 280 280 286 291 289 287 287 283 280 283 284 285 289 289 289 291 294 296 297 294 292 291 287 286 294 301 304 305 310 315 314 312 314 316 313 305 297 295 293 291 291 290 286 282 282 281 275 267 257 247 240 236 232 226 223 223 229
184 187 192 194 197 201 204 206 211 214 218 222 225 231 239 244 251 255 256 258 261 264 267 271 275 280 280 274 273 278 283 284 283 282 281 280 283 284 284 285 287 288 288 291 295 297 297 298 300 297 292 292 297 300 301 303 308 311 310 312 318 321 320 313 302 297 293 289 284 283 283 280 277 276 275 271 264 254 242 235 231 227 225 226 231
183 189 194 195 199 202 205 208 211 214 217 220 224 230 237 245 251 255 259 261 260 259 260 265 272 275 272 271 276 283 283 278 277 281 285 288 291 290 286 284 284 285 288 292 296 298 298 301 303 302 299 299 300 300 300 302 307 310 311 314 320 321 317 313 310 307 302 294 288 284 283 280 275 274 275 271 265 258 247 236 228 226 227 231 234
186 192 194 197 201 203 205 207 210 213 215 218 225 232 238 243 248 253 257 259 261 261 259 261 267 268 267 270 274 279 279 273 272 282 290 293 295 294 288 282 278 279 286 292 293 295 300 304 303 300 299 301 299 298 299 303 308 311 311 315 319 318 314 313 314 314 310 303 295 289 285 281 275 273 272 268 263 258 252 245 239 233 231 235 240
190 193 195 199 202 203 205 206 207 210 213 217 225 234 238 242 246 249 251 254 259 261 260 262 265 265 265 266 264 266 270 271 274 281 284 287 293 295 289 281 273 275 286 292 290 292 303 312 311 305 302 304 302 298 297 305 311 312 312 316 319 318 317 318 316 313 313 309 301 292 285 280 275 270 266 262 260 258 255 249 243 236 227 230 239
194 195 200 202 202 203 204 205 206 207 211 217 225 234 241 245 249 249 248 251 254 255 256 260 262 263 265 265 263 263 265 270 275 276 279 288 297 297 289 276 265 272 286 292 292 296 305 315 315 310 307 308 307 302 302 309 315 316 317 318 318 317 320 322 319 317 317 315 307 299 291 284 278 270 263 258 254 252 253 248 236 225 217 216 228
198 200 205 203 203 204 202 205 208 207 211 218 226 236 243 248 252 251 247 249 253 254 256 260 263 265 265 264 264 262 262 271 275 274 285 302 307 303 293 277 266 276 289 293 294 300 308 314 315 312 311 312 310 308 309 313 316 318 320 320 318 317 320 323 323 323 323 320 316 313 308 300 288 274 261 254 249 244 242 241 229 214 211 213 216
202 204 206 204 204 203 202 206 209 209 214 219 226 236 244 249 254 255 252 251 254 257 258 261 264 263 262 267 270 264 264 273 276 280 299 312 312 305 299 290 281 285 292 293 296 302 307 313 318 318 313 312 311 311 313 316 318 319 321 322 319 317 322 326 326 325 324 324 326 326 324 317 301 277 259 251 246 238 233 233 227 210 206 213 217
202 204 203 203 204 205 206 208 208 213 220 222 227 236 245 251 256 261 263 258 256 259 259 261 264 264 264 269 269 267 269 271 272 292 310 314 311 304 302 303 296 293 294 293 294 300 303 308 317 319 314 312 313 315 317 320 323 323 325 328 323 320 325 330 331 329 325 327 332 332 329 325 307 274 255 248 243 233 226 226 225 214 209 212 216
202 203 202 202 206 207 208 210 211 214 217 220 228 236 243 251 258 263 266 264 263 266 265 263 266 272 276 279 287 301 306 294 291 314 321 317 313 308 308 314 309 300 298 294 292 296 300 305 314 316 314 315 317 319 323 329 334 333 333 333 328 325 329 333 334 334 331 333 338 335 332 337 335 292 247 234 230 225 219 219 221 218 215 214 215
199 202 204 205 210 212 213 215 214 211 212 217 227 237 244 252 262 268 270 268 267 269 278 291 302 307 307 317 342 351 338 311 302 317 325 322 316 310 311 318 315 307 303 298 293 295 297 303 311 312 313 319 320 322 329 337 341 340 337 335 329 327 334 340 339 337 336 338 340 338 336 347 356 348 292 222 210 208 210 215 218 218 218 219 218
205 206 209 209 215 221 220 215 208 206 211 214 218 233 244 254 270 284 290 287 285 292 308 309 309 311 310 325 349 344 308 288 291 306 321 322 317 314 316 318 315 311 306 297 293 297 298 300 307 310 313 320 322 322 330 341 344 340 335 333 328 328 341 350 347 343 342 342 341 340 342 351 357 358 354 321 216 202 203 210 216 217 219 221 222
222 219 218 216 219 226 226 220 212 211 215 214 217 233 247 259 267 274 287 296 299 307 304 286 279 286 304 319 325 316 305 299 294 304 321 322 317 317 315 312 309 308 305 299 298 302 302 302 307 313 316 320 320 321 330 339 343 340 337 337 336 338 349 356 351 346 346 346 343 341 344 351 355 357 0 359 319 224 211 211 214 216 219 220 221
233 239 245 238 232 234 231 228 238 232 221 222 237 250 259 265 267 275 286 282 274 274 280 279 276 279 297 313 310 309 310 305 302 313 323 319 318 318 314 313 316 317 316 313 308 305 305 308 314 319 322 324 325 328 335 342 347 350 353 356 355 356 1 1 353 348 348 346 344 342 345 352 355 357 7 16 13 315 236 224 219 217 218 220 221
244 244 252 247 235 233 229 229 239 238 234 245 264 263 262 267 283 296 289 271 254 248 263 276 276 272 269 285 298 298 297 308 325 331 318 314 318 318 319 327 333 331 327 325 320 314 313 317 323 329 333 336 339 345 349 348 356 5 9 10 11 10 7 2 355 352 350 347 344 344 347 352 358 5 16 24 26 19 330 251 238 226 217 215 216
237 231 233 235 237 240 239 236 233 235 247 265 270 262 258 264 279 278 270 261 253 260 272 273 269 271 277 286 307 312 309 320 337 333 325 323 322 323 331 340 340 338 340 337 329 323 322 325 330 336 345 354 359 7 3 351 359 9 13 13 15 13 9 6 4 1 356 350 347 347 349 355 3 11 19 24 26 25 19 334 261 241 227 216 208
232 241 239 243 245 236 225 223 220 227 257 280 280 261 250 246 250 252 252 262 308 312 311 325 329 320 328 56 38 0 347 333 327 331 334 331 322 324 339 345 343 346 349 343 333 332 334 334 334 341 359 9 8 8 2 353 358 7 10 11 13 14 13 12 11 6 359 354 352 352 354 357 4 10 16 22 25 25 24 22 4 273 230 215 210
225 241 244 248 248 224 202 216 228 244 264 280 320 329 322 236 177 180 198 341 346 341 349 3 354 345 7 56 57 54 69 4 327 330 335 329 321 323 340 350 348 348 347 342 340 344 344 340 348 5 12 10 8 6 0 357 358 3 7 9 11 14 14 12 7 2 359 358 357 356 357 358 3 9 14 20 23 23 23 28 30 30 40 132 216
218 241 248 246 237 183 181 214 241 263 283 295 287 282 308 15 11 51 18 2 359 358 5 17 11 9 52 73 55 50 54 3 338 338 337 330 324 323 343 355 353 348 345 339 338 347 355 359 14 21 13 9 12 8 1 360 359 0 3 5 8 11 12 9 5 2 0 0 1 1 0 359 2 9 14 18 21 22 23 27 33 35 38 44 35
226 247 251 251 47 76 207 220 235 250 263 267 249 221 175 119 64 42 36 23 13 10 22 36 33 45 90 87 45 27 25 9 0 0 357 350 343 341 359 7 4 359 353 345 340 356 16 21 24 18 10 11 15 9 3 3 1 359 359 360 4 8 9 6 5 3 2 3 5 6 5 2 2 8 14 16 18 22 24 26 30 33 33 38 39
241 251 250 261 320 320 255 228 240 246 245 249 243 197 154 136 114 94 68 35 32 37 50 58 52 51 66 72 51 42 36 26 19 13 8 6 5 359 4 16 17 14 11 12 20 31 32 30 28 19 12 11 11 8 7 6 3 0 359 357 359 3 4 3 3 5 6 7 6 7 8 6 5 8 13 16 17 19 22 24 26 28 28 30 35
263 272 273 276 282 273 254 249 266 275 268 281 314 25 148 175 176 147 128 103 78 72 74 74 66 53 50 54 57 54 43 32 25 18 8 360 353 340 327 3 30 30 27 32 39 37 31 30 28 19 14 13 9 7 8 6 3 2 2 359 357 359 1 2 5 10 12 10 9 10 10 9 10 10 11 13 16 17 20 22 23 24 25 26 28
262 275 285 300 298 278 262 250 256 304 1 342 331 2 170 196 187 168 157 141 110 94 88 88 82 71 69 66 60 56 53 44 35 27 12 356 347 336 311 291 58 48 43 46 48 41 35 34 28 20 19 16 11 10 9 6 4 3 2 360 358 359 2 5 8 11 13 12 12 12 11 10 12 12 11 13 14 15 17 20 20 20 22 25 27
254 262 248 250 278 293 293 309 39 26 355 323 303 265 188 185 173 175 182 174 150 139 133 119 100 88 84 74 59 55 59 52 44 38 24 7 9 19 16 44 68 54 47 51 52 47 43 40 31 25 24 21 18 17 11 6 6 7 4 0 357 357 2 6 8 10 11 12 12 12 11 11 12 13 13 14 15 14 14 17 19 18 17 20 26
232 234 171 178 171 337 344 24 50 49 352 325 309 268 250 239 129 145 175 179 158 150 147 150 143 117 92 66 40 37 50 52 48 46 38 26 26 38 45 51 57 56 52 51 52 51 47 43 36 31 26 24 24 23 17 13 14 14 11 7 2 359 360 2 5 8 10 10 12 13 13 12 11 12 13 14 14 13 14 15 18 19 17 17 22
173 128 114 146 155 134 89 78 66 307 23 24 4 313 190 118 95 99 98 104 137 148 145 146 153 144 98 16 356 0 14 19 24 35 40 39 39 43 48 53 58 60 57 52 50 50 45 39 35 29 21 18 20 19 17 17 15 13 12 13 11 8 4 2 5 9 9 9 10 11 12 11 10 10 12 13 13 13 13 13 15 18 19 19 20
124 121 150 156 155 160 149 151 201 229 148 123 132 145 144 128 110 107 105 101 110 122 116 102 99 90 22 348 342 347 350 331 317 351 29 44 48 50 54 59 59 57 54 49 47 48 44 37 31 26 20 16 12 10 9 10 8 6 7 7 7 7 6 4 6 10 11 8 8 9 10 10 9 9 11 13 14 13 14 14 15 15 17 18 17
134 135 197 170 165 190 194 187 187 190 180 161 146 157 175 153 124 119 117 108 101 101 96 83 69 47 14 1 10 22 32 42 36 28 39 53 57 55 58 62 62 59 54 48 44 44 42 36 30 29 25 19 14 12 9 8 7 6 4 2 1 3 5 4 5 8 9 7 8 9 9 8 8 9 10 13 14 14 14 15 15 14 14 14 14
156 144 135 152 172 175 168 180 187 177 165 157 152 167 184 162 143 146 149 143 137 127 114 95 71 47 22 13 21 26 36 57 58 43 45 57 62 60 60 63 64 61 55 50 46 42 39 35 31 31 28 20 16 14 11 10 10 8 6 6 3 1 3 4 4 5 6 7 8 9 9 8 8 8 8 10 13 15 16 16 15 15 15 13 14
160 143 124 144 178 167 141 150 153 138 139 149 151 148 136 129 141 170 183 181 174 157 122 94 82 65 36 23 31 34 35 42 43 41 51 62 66 70 68 61 60 61 55 49 46 41 37 35 32 30 28 22 18 14 11 12 13 10 8 8 6 2 2 2 2 3 4 4 5 7 8 8 8 7 6 7 10 15 18 18 16 16 17 16 15
151 143 139 161 182 173 154 146 140 141 155 159 148 140 140 142 160 189 208 217 204 167 132 118 119 107 61 33 51 68 55 31 10 27 52 55 67 83 81 67 57 59 57 51 46 40 33 32 35 34 30 25 20 16 15 15 15 13 10 9 7 5 3 359 360 3 3 1 2 4 5 7 9 8 7 7 8 12 17 19 17 17 17 16 15
161 155 159 172 174 165 159 154 154 165 180 170 156 163 181 194 211 220 227 235 213 162 144 138 139 129 94 64 71 87 49 11 340 341 2 184 150 111 97 69 44 44 48 52 51 45 35 31 37 40 36 31 27 24 22 22 19 17 16 12 8 7 6 3 5 6 2 357 358 1 3 6 9 9 9 9 9 10 15 17 17 18 18 15 15
166 159 163 169 171 172 169 168 174 177 169 163 168 180 197 214 227 232 242 260 245 191 154 139 138 137 118 85 12 307 1 5 338 298 265 226 192 187 213 201 170 73 59 64 58 49 38 34 40 45 42 39 37 34 32 31 27 22 19 17 13 10 8 9 13 12 2 355 356 360 1 5 8 9 9 10 10 10 13 14 14 16 18 16 15
174 171 172 164 158 167 170 170 174 167 161 173 188 194 204 224 234 237 251 299 305 245 156 145 147 142 104 16 278 255 247 305 288 277 272 258 240 266 264 228 185 155 133 109 76 57 47 41 44 48 47 45 44 42 41 40 35 24 18 18 19 16 11 10 17 19 8 1 2 2 359 1 6 8 7 9 11 12 12 12 12 14 18 17 14
153 157 159 146 148 169 179 180 179 174 177 201 214 205 208 232 245 247 257 51 47 293 197 181 173 155 159 231 239 224 197 197 205 209 230 253 251 252 263 254 172 125 100 87 75 64 58 55 52 50 49 50 51 49 47 46 39 23 14 15 19 19 15 14 22 24 14 7 8 7 359 358 4 6 5 7 11 13 12 11 11 14 17 17 14
168 169 166 161 171 185 185 180 183 186 202 236 239 223 229 244 244 212 160 74 8 322 292 243 184 172 198 224 239 236 218 217 208 198 202 225 232 225 238 274 69 91 82 78 78 69 64 63 61 57 54 55 57 59 57 52 39 21 15 14 15 16 17 21 27 28 21 16 17 14 5 359 2 5 5 6 9 11 11 9 8 11 17 18 15
195 208 202 191 195 200 193 185 192 212 240 255 252 245 256 278 295 292 280 314 352 331 303 284 269 239 238 245 248 240 242 253 234 198 192 192 179 175 178 355 1 54 89 94 93 82 74 70 64 62 64 64 66 72 69 52 29 17 15 15 13 14 17 22 27 29 27 25 25 22 13 4 2 5 7 7 7 8 8 7 5 9 16 18 16
201 230 242 230 224 229 226 218 218 229 244 253 255 254 256 265 274 276 274 273 269 261 261 261 260 261 260 257 246 219 224 240 241 218 208 187 149 143 142 141 199 184 115 111 110 99 96 95 81 73 72 69 77 91 82 40 17 13 14 14 13 16 20 25 31 33 31 29 30 28 20 9 4 7 10 10 8 7 6 5 5 9 15 17 16
219 224 230 228 230 238 238 230 231 242 247 247 246 243 239 243 252 257 258 256 250 246 255 264 259 239 237 240 237 224 219 221 222 222 210 181 157 151 152 161 180 177 129 128 129 111 102 99 87 82 82 79 91 108 91 25 13 13 14 13 14 17 21 31 41 40 34 31 32 29 20 9 7 10 13 11 9 8 6 5 6 10 14 15 16
242 225 217 212 214 216 216 216 223 231 235 236 242 247 244 240 238 239 245 253 253 246 246 251 251 243 233 225 223 225 219 212 213 215 196 177 171 170 165 166 180 185 170 153 143 129 120 108 89 82 86 91 101 105 66 21 16 18 16 13 14 15 16 28 44 45 39 37 35 29 19 11 10 14 14 12 10 9 8 6 7 11 14 13 13